iso_date,Year,Hour,Min,DOY,POS_DOY,Lat,Lon,BP,Ts,Ta,has_bp,has_ts,has_ta,BuoyID,Buoy_Type,Buoy_Owner,Logistics,Hemisphere
2022-08-01T00:00:00Z,2022,0,0,213.0,213.0,81.46101,22.36358,-999.0,4.3,-999.0,no,yes,no,300534062071120,NOMAD,AWI/USIABP,PolarStern,North
2022-08-01T01:00:02Z,2022,1,0,213.0417,213.0417,81.46231,22.39914,-999.0,4.3,-999.0,no,yes,no,300534062071120,NOMAD,AWI/USIABP,PolarStern,North
2022-08-01T01:59:57Z,2022,2,0,213.0833,213.0833,81.46336,22.42168,-999.0,4.2,-999.0,no,yes,no,300534062071120,NOMAD,AWI/USIABP,PolarStern,North
2022-08-01T03:00:00Z,2022,3,0,213.125,213.125,81.46708,22.42629,-999.0,4.3,-999.0,no,yes,no,300534062071120,NOMAD,AWI/USIABP,PolarStern,North
2022-08-01T04:00:02Z,2022,4,0,213.1667,213.1667,81.47339,22.4248,-999.0,3.9,-999.0,no,yes,no,300534062071120,NOMAD,AWI/USIABP,PolarStern,North
2022-08-01T04:59:57Z,2022,5,0,213.2083,213.2083,81.48225,22.44095,-999.0,3.8,-999.0,no,yes,no,300534062071120,NOMAD,AWI/USIABP,PolarStern,North
2022-08-01T06:00:00Z,2022,6,0,213.25,213.25,81.49103,22.45283,-999.0,4.1,-999.0,no,yes,no,300534062071120,NOMAD,AWI/USIABP,PolarStern,North
2022-08-01T07:00:02Z,2022,7,0,213.2917,213.2917,81.49906,22.48756,-999.0,4.1,-999.0,no,yes,no,300534062071120,NOMAD,AWI/USIABP,PolarStern,North
2022-08-01T07:59:57Z,2022,8,0,213.3333,213.3333,81.50711,22.52829,-999.0,4.1,-999.0,no,yes,no,300534062071120,NOMAD,AWI/USIABP,PolarStern,North
2022-08-01T09:00:00Z,2022,9,0,213.375,213.375,81.51396,22.56647,-999.0,4.2,-999.0,no,yes,no,300534062071120,NOMAD,AWI/USIABP,PolarStern,North
2022-08-01T10:00:02Z,2022,10,0,213.4167,213.4167,81.51604,22.58952,-999.0,4.3,-999.0,no,yes,no,300534062071120,NOMAD,AWI/USIABP,PolarStern,North
2022-08-01T10:59:57Z,2022,11,0,213.4583,213.4583,81.51612,22.58945,-999.0,4.3,-999.0,no,yes,no,300534062071120,NOMAD,AWI/USIABP,PolarStern,North
2022-08-01T12:00:00Z,2022,12,0,213.5,213.5,81.51841,22.57607,-999.0,4.3,-999.0,no,yes,no,300534062071120,NOMAD,AWI/USIABP,PolarStern,North
2022-08-01T13:00:02Z,2022,13,0,213.5417,213.5417,81.52376,22.56701,-999.0,4.3,-999.0,no,yes,no,300534062071120,NOMAD,AWI/USIABP,PolarStern,North
2022-08-01T13:59:57Z,2022,14,0,213.5833,213.5833,81.53206,22.55951,-999.0,4.4,-999.0,no,yes,no,300534062071120,NOMAD,AWI/USIABP,PolarStern,North
2022-08-01T15:00:00Z,2022,15,0,213.625,213.625,81.54291,22.56972,-999.0,4.3,-999.0,no,yes,no,300534062071120,NOMAD,AWI/USIABP,PolarStern,North
2022-08-01T16:00:02Z,2022,16,0,213.6667,213.6667,81.54905,22.59388,-999.0,4.3,-999.0,no,yes,no,300534062071120,NOMAD,AWI/USIABP,PolarStern,North
2022-08-01T16:59:57Z,2022,17,0,213.7083,213.7083,81.5535,22.62471,-999.0,4.3,-999.0,no,yes,no,300534062071120,NOMAD,AWI/USIABP,PolarStern,North
2022-08-01T18:00:00Z,2022,18,0,213.75,213.75,81.55696,22.65402,-999.0,4.3,-999.0,no,yes,no,300534062071120,NOMAD,AWI/USIABP,PolarStern,North
2022-08-01T19:00:02Z,2022,19,0,213.7917,213.7917,81.5607,22.67581,-999.0,4.3,-999.0,no,yes,no,300534062071120,NOMAD,AWI/USIABP,PolarStern,North
2022-08-01T19:59:57Z,2022,20,0,213.8333,213.8333,81.56298,22.69498,-999.0,4.3,-999.0,no,yes,no,300534062071120,NOMAD,AWI/USIABP,PolarStern,North
2022-08-01T21:00:00Z,2022,21,0,213.875,213.875,81.56376,22.69393,-999.0,4.3,-999.0,no,yes,no,300534062071120,NOMAD,AWI/USIABP,PolarStern,North
2022-08-01T22:00:02Z,2022,22,0,213.9167,213.9167,81.56461,22.66099,-999.0,4.3,-999.0,no,yes,no,300534062071120,NOMAD,AWI/USIABP,PolarStern,North
2022-08-01T22:59:57Z,2022,23,0,213.9583,213.9583,81.5678,22.62968,-999.0,4.4,-999.0,no,yes,no,300534062071120,NOMAD,AWI/USIABP,PolarStern,North
2022-08-02T00:00:00Z,2022,0,0,214.0,214.0,81.57098,22.59409,-999.0,4.3,-999.0,no,yes,no,300534062071120,NOMAD,AWI/USIABP,PolarStern,North
2022-08-02T01:00:02Z,2022,1,0,214.0417,214.0417,81.57364,22.58322,-999.0,4.2,-999.0,no,yes,no,300534062071120,NOMAD,AWI/USIABP,PolarStern,North
2022-08-02T01:59:57Z,2022,2,0,214.0833,214.0833,81.57489,22.5965,-999.0,4.1,-999.0,no,yes,no,300534062071120,NOMAD,AWI/USIABP,PolarStern,North
2022-08-02T03:00:00Z,2022,3,0,214.125,214.125,81.57534,22.59914,-999.0,4.1,-999.0,no,yes,no,300534062071120,NOMAD,AWI/USIABP,PolarStern,North
2022-08-02T04:00:02Z,2022,4,0,214.1667,214.1667,81.57673,22.59458,-999.0,4.1,-999.0,no,yes,no,300534062071120,NOMAD,AWI/USIABP,PolarStern,North
2022-08-02T04:59:57Z,2022,5,0,214.2083,214.2083,81.57985,22.58724,-999.0,4.1,-999.0,no,yes,no,300534062071120,NOMAD,AWI/USIABP,PolarStern,North
2022-08-02T06:00:00Z,2022,6,0,214.25,214.25,81.58342,22.59395,-999.0,4.1,-999.0,no,yes,no,300534062071120,NOMAD,AWI/USIABP,PolarStern,North
2022-08-02T07:00:02Z,2022,7,0,214.2917,214.2917,81.5882,22.60087,-999.0,4.1,-999.0,no,yes,no,300534062071120,NOMAD,AWI/USIABP,PolarStern,North
2022-08-02T07:59:57Z,2022,8,0,214.3333,214.3333,81.59054,22.61794,-999.0,4.1,-999.0,no,yes,no,300534062071120,NOMAD,AWI/USIABP,PolarStern,North
2022-08-02T09:00:00Z,2022,9,0,214.375,214.375,81.58972,22.62916,-999.0,4.0,-999.0,no,yes,no,300534062071120,NOMAD,AWI/USIABP,PolarStern,North
2022-08-02T10:00:02Z,2022,10,0,214.4167,214.4167,81.58772,22.62232,-999.0,4.0,-999.0,no,yes,no,300534062071120,NOMAD,AWI/USIABP,PolarStern,North
2022-08-02T10:59:57Z,2022,11,0,214.4583,214.4583,81.58778,22.60559,-999.0,3.7,-999.0,no,yes,no,300534062071120,NOMAD,AWI/USIABP,PolarStern,North
2022-08-02T12:00:00Z,2022,12,0,214.5,214.5,81.58746,22.58771,-999.0,3.8,-999.0,no,yes,no,300534062071120,NOMAD,AWI/USIABP,PolarStern,North
2022-08-02T13:00:02Z,2022,13,0,214.5417,214.5417,81.58755,22.55873,-999.0,3.8,-999.0,no,yes,no,300534062071120,NOMAD,AWI/USIABP,PolarStern,North
2022-08-02T13:59:57Z,2022,14,0,214.5833,214.5833,81.58909,22.5319,-999.0,3.3,-999.0,no,yes,no,300534062071120,NOMAD,AWI/USIABP,PolarStern,North
2022-08-02T15:00:00Z,2022,15,0,214.625,214.625,81.5925,22.53085,-999.0,3.0,-999.0,no,yes,no,300534062071120,NOMAD,AWI/USIABP,PolarStern,North
2022-08-02T16:00:02Z,2022,16,0,214.6667,214.6667,81.59383,22.54307,-999.0,3.2,-999.0,no,yes,no,300534062071120,NOMAD,AWI/USIABP,PolarStern,North
2022-08-02T16:59:57Z,2022,17,0,214.7083,214.7083,81.59153,22.55448,-999.0,3.0,-999.0,no,yes,no,300534062071120,NOMAD,AWI/USIABP,PolarStern,North
2022-08-02T18:00:00Z,2022,18,0,214.75,214.75,81.58849,22.56382,-999.0,2.6,-999.0,no,yes,no,300534062071120,NOMAD,AWI/USIABP,PolarStern,North
2022-08-02T19:00:02Z,2022,19,0,214.7917,214.7917,81.5852,22.56238,-999.0,1.9,-999.0,no,yes,no,300534062071120,NOMAD,AWI/USIABP,PolarStern,North
2022-08-02T19:59:57Z,2022,20,0,214.8333,214.8333,81.58168,22.54902,-999.0,1.9,-999.0,no,yes,no,300534062071120,NOMAD,AWI/USIABP,PolarStern,North
2022-08-02T21:00:00Z,2022,21,0,214.875,214.875,81.57975,22.5134,-999.0,2.3,-999.0,no,yes,no,300534062071120,NOMAD,AWI/USIABP,PolarStern,North
2022-08-02T22:00:02Z,2022,22,0,214.9167,214.9167,81.58142,22.4844,-999.0,2.0,-999.0,no,yes,no,300534062071120,NOMAD,AWI/USIABP,PolarStern,North
2022-08-02T22:59:57Z,2022,23,0,214.9583,214.9583,81.58206,22.47287,-999.0,2.0,-999.0,no,yes,no,300534062071120,NOMAD,AWI/USIABP,PolarStern,North
2022-08-03T00:00:00Z,2022,0,0,215.0,215.0,81.58256,22.47236,-999.0,1.1,-999.0,no,yes,no,300534062071120,NOMAD,AWI/USIABP,PolarStern,North
2022-08-03T01:00:02Z,2022,1,0,215.0417,215.0417,81.58245,22.47137,-999.0,1.0,-999.0,no,yes,no,300534062071120,NOMAD,AWI/USIABP,PolarStern,North
2022-08-03T01:59:57Z,2022,2,0,215.0833,215.0833,81.58227,22.46647,-999.0,1.4,-999.0,no,yes,no,300534062071120,NOMAD,AWI/USIABP,PolarStern,North
2022-08-03T03:00:00Z,2022,3,0,215.125,215.125,81.58331,22.4695,-999.0,1.6,-999.0,no,yes,no,300534062071120,NOMAD,AWI/USIABP,PolarStern,North
2022-08-03T04:00:02Z,2022,4,0,215.1667,215.1667,81.58667,22.49465,-999.0,1.7,-999.0,no,yes,no,300534062071120,NOMAD,AWI/USIABP,PolarStern,North
2022-08-03T04:59:57Z,2022,5,0,215.2083,215.2083,81.58761,22.53671,-999.0,1.8,-999.0,no,yes,no,300534062071120,NOMAD,AWI/USIABP,PolarStern,North
2022-08-03T06:00:00Z,2022,6,0,215.25,215.25,81.58488,22.59206,-999.0,1.7,-999.0,no,yes,no,300534062071120,NOMAD,AWI/USIABP,PolarStern,North
2022-08-03T07:00:02Z,2022,7,0,215.2917,215.2917,81.5787,22.63471,-999.0,1.6,-999.0,no,yes,no,300534062071120,NOMAD,AWI/USIABP,PolarStern,North
2022-08-03T07:59:57Z,2022,8,0,215.3333,215.3333,81.57498,22.66532,-999.0,1.7,-999.0,no,yes,no,300534062071120,NOMAD,AWI/USIABP,PolarStern,North
2022-08-03T09:00:00Z,2022,9,0,215.375,215.375,81.57241,22.68675,-999.0,1.7,-999.0,no,yes,no,300534062071120,NOMAD,AWI/USIABP,PolarStern,North
2022-08-03T10:00:02Z,2022,10,0,215.4167,215.4167,81.5699,22.68775,-999.0,1.7,-999.0,no,yes,no,300534062071120,NOMAD,AWI/USIABP,PolarStern,North
2022-08-03T10:59:57Z,2022,11,0,215.4583,215.4583,81.56673,22.67677,-999.0,1.7,-999.0,no,yes,no,300534062071120,NOMAD,AWI/USIABP,PolarStern,North
